kylie maree Speed Test Results

        Days  
kylie maree kylie maree
Share Query AVG Img MAX Img AVG bbc MAX bbc iFrame
  
 
Showing results 1 to 25 of 80 for Username kylie maree arrow up Only Upload    arrow down Only Download   
Time arrow down ct    arrow up arrow down   Size    Speed ConnectID Provider TID
Thu Oct 05 2017 @ 2:54:00 am Sydney, AU AU arrow 6.3 MB 11.77 Mbps 1.47 MB/s2001117944745Primus history8RK2hGrd3share history
Thu Oct 05 2017 @ 2:53:42 am Sydney, AU AU arrow 37.5 MB 22.13 Mbps 2.77 MB/s2001117944745Primus historyezjFO5alkshare history
Thu Oct 05 2017 @ 12:41:07 am Sydney, AU AU arrow 6.3 MB 10.3 Mbps 1.29 MB/s2001117944745Primus historyvwfoiThbEshare history
Thu Oct 05 2017 @ 12:40:50 am Sydney, AU AU arrow 24.5 MB 25.89 Mbps 3.24 MB/s2001117944745Primus historyQtiP8q57pshare history
Tue Oct 03 2017 @ 5:07:20 am Sydney, AU AU arrow 4.6 MB 7.66 Mbps 958 kB/s2001117944745Primus historyXwlgT9Ninshare history
Tue Oct 03 2017 @ 5:07:07 am Sydney, AU AU arrow 7.1 MB 10.35 Mbps 1.29 MB/s2001117944745Primus historyJZCnO9co4share history
Tue Oct 03 2017 @ 5:04:49 am Sydney, AU AU arrow 6.3 MB 7.47 Mbps 933 kB/s2001117944745Primus historykAVYsMEXjshare history
Tue Oct 03 2017 @ 5:04:31 am Sydney, AU AU arrow 14.6 MB 9.87 Mbps 1.23 MB/s2001117944745Primus historyd730GYL5tshare history
Tue Oct 03 2017 @ 5:02:00 am Sydney, AU AU arrow 4.9 MB 3.48 Mbps 435 kB/s10199360129581Primus historyNmDeMzqQkshare history
Tue Oct 03 2017 @ 5:01:39 am Sydney, AU AU arrow 44.5 MB 14.74 Mbps 1.84 MB/s10199360129581Primus historyvIChpdcDjshare history
Tue Oct 03 2017 @ 12:07:21 am Sydney, AU arrow 2.6 MB 2.91 Mbps 363 kB/s98299103936Choopa Llc historynUrJF3YVZshare history
Tue Oct 03 2017 @ 12:06:56 am Sydney, AU arrow 11.3 MB 522 kbps 65 kB/s98299103936Choopa Llc historyn5hT7sMJKshare history
Sun Oct 01 2017 @ 8:51:22 pm Sydney, AU AU arrow 6.1 MB 5.02 Mbps 627 kB/s2001117944745Primus historywkm6KIZLeshare history
Sun Oct 01 2017 @ 8:51:00 pm Sydney, AU AU arrow 6.1 MB 4.98 Mbps 623 kB/s2001117944745Primus history7PxwaepZ1share history
Mon Mar 20 2017 @ 5:07:50 am Sydney, AU US arrow 6.3 MB 10.98 Mbps 1.37 MB/s14502135812528Cadence Design historypdwNQ6vktshare history
Mon Mar 20 2017 @ 5:07:22 am Sydney, AU US arrow 22.4 MB 15.62 Mbps 1.95 MB/s14502135812528Cadence Design historyo4b8PvWDQshare history
Mon Mar 20 2017 @ 5:02:18 am Sydney, AU US arrow 6.4 MB 12.3 Mbps 1.54 MB/s14502135812528Cadence Design historyAc3PpnqXOshare history
Mon Mar 20 2017 @ 5:01:53 am Sydney, AU US arrow 22.6 MB 16.79 Mbps 2.1 MB/s14502135812528Cadence Design historybv9JGeEknshare history
Mon Mar 20 2017 @ 4:56:49 am Sydney, AU US arrow 6.3 MB 11.9 Mbps 1.49 MB/s14502135812528Cadence Design historydtUiGS2h7share history
Mon Mar 20 2017 @ 4:56:23 am Sydney, AU US arrow 11.4 MB 11.55 Mbps 1.44 MB/s14502135812528Cadence Design historyQSc3IW1EBshare history
Mon Mar 20 2017 @ 4:51:47 am Sydney, AU US arrow 19.1 MB 13.45 Mbps 1.68 MB/s14502135812528Cadence Design historyXIZVQa6iLshare history
Mon Mar 20 2017 @ 4:50:54 am Sydney, AU US arrow 22.9 MB 16.49 Mbps 2.06 MB/s14502135812528Cadence Design historyBDzLoYhQ6share history
Mon Mar 20 2017 @ 4:46:17 am Sydney, AU US arrow 18.5 MB 13.5 Mbps 1.69 MB/s14502135812528Cadence Design historyCkTUb89Ivshare history
Mon Mar 20 2017 @ 4:45:26 am Sydney, AU US arrow 23.1 MB 17.81 Mbps 2.23 MB/s14502135812528Cadence Design historySL13w9fp0share history
Mon Mar 20 2017 @ 4:41:24 am Sydney, AU US arrow 16.1 MB 11.89 Mbps 1.49 MB/s14502135812528Cadence Design historyW4xXomsjlshare history
  
Displaying Internet Speed Test results for Username kylie maree
Speed Test Version 15.9
© 2017 TestMy Net LLC - TestMy.net - Terms & Privacy - Mobile